iso_date,epoch_date,Year,Hour,Min,DOY,POS_DOY,Lat,Lon,BP,Ts,Ta,has_bp,has_ts,has_ta,BuoyID,Buoy_Type,Buoy_Owner,Logistics,Hemisphere
2020-07-06T18:00:00Z,1594058400,2020,18,0,188.75,188.75,-58.456,15.921,989.6,-1.44,-999.0,yes,yes,no,300234066434250,BD2GI,AOML,SA_AGULHAS,South
2020-07-06T19:00:02Z,1594062003,2020,19,0,188.7917,188.7917,-58.46,15.921,989.2,-1.47,-999.0,yes,yes,no,300234066434250,BD2GI,AOML,SA_AGULHAS,South
2020-07-06T19:59:57Z,1594065597,2020,20,0,188.8333,188.8333,-58.465,15.923,988.9,-1.44,-999.0,yes,yes,no,300234066434250,BD2GI,AOML,SA_AGULHAS,South
2020-07-06T21:00:00Z,1594069200,2020,21,0,188.875,188.875,-58.469,15.927,988.5,-1.43,-999.0,yes,yes,no,300234066434250,BD2GI,AOML,SA_AGULHAS,South
2020-07-06T22:00:02Z,1594072803,2020,22,0,188.9167,188.9167,-58.471,15.933,988.3,-1.43,-999.0,yes,yes,no,300234066434250,BD2GI,AOML,SA_AGULHAS,South
2020-07-06T22:59:57Z,1594076397,2020,23,0,188.9583,188.9583,-58.472,15.939,987.8,-1.49,-999.0,yes,yes,no,300234066434250,BD2GI,AOML,SA_AGULHAS,South
2020-07-07T00:00:00Z,1594080000,2020,0,0,189.0,189.0,-58.473,15.943,987.3,-1.5,-999.0,yes,yes,no,300234066434250,BD2GI,AOML,SA_AGULHAS,South
2020-07-07T01:00:02Z,1594083603,2020,1,0,189.0417,189.0417,-58.473,15.947,986.9,-1.52,-999.0,yes,yes,no,300234066434250,BD2GI,AOML,SA_AGULHAS,South
2020-07-07T01:59:57Z,1594087197,2020,2,0,189.0833,189.0833,-58.472,15.948,986.4,-1.47,-999.0,yes,yes,no,300234066434250,BD2GI,AOML,SA_AGULHAS,South
2020-07-07T03:00:00Z,1594090800,2020,3,0,189.125,189.125,-58.473,15.942,985.8,-1.44,-999.0,yes,yes,no,300234066434250,BD2GI,AOML,SA_AGULHAS,South
2020-07-07T04:00:02Z,1594094403,2020,4,0,189.1667,189.1667,-58.475,15.942,984.8,-1.44,-999.0,yes,yes,no,300234066434250,BD2GI,AOML,SA_AGULHAS,South
2020-07-07T04:59:57Z,1594097997,2020,5,0,189.2083,189.2083,-58.478,15.939,984.2,-1.45,-999.0,yes,yes,no,300234066434250,BD2GI,AOML,SA_AGULHAS,South
2020-07-07T06:00:00Z,1594101600,2020,6,0,189.25,189.25,-58.483,15.936,983.3,-1.45,-999.0,yes,yes,no,300234066434250,BD2GI,AOML,SA_AGULHAS,South
2020-07-07T07:00:02Z,1594105203,2020,7,0,189.2917,189.2917,-58.488,15.933,982.3,-1.46,-999.0,yes,yes,no,300234066434250,BD2GI,AOML,SA_AGULHAS,South
2020-07-07T07:59:57Z,1594108797,2020,8,0,189.3333,189.3333,-58.494,15.93,981.3,-1.46,-999.0,yes,yes,no,300234066434250,BD2GI,AOML,SA_AGULHAS,South
2020-07-07T09:00:00Z,1594112400,2020,9,0,189.375,189.375,-58.501,15.932,980.9,-1.46,-999.0,yes,yes,no,300234066434250,BD2GI,AOML,SA_AGULHAS,South
2020-07-07T10:00:02Z,1594116003,2020,10,0,189.4167,189.4167,-58.508,15.934,979.9,-1.46,-999.0,yes,yes,no,300234066434250,BD2GI,AOML,SA_AGULHAS,South
2020-07-07T10:59:57Z,1594119597,2020,11,0,189.4583,189.4583,-58.513,15.94,979.4,-1.45,-999.0,yes,yes,no,300234066434250,BD2GI,AOML,SA_AGULHAS,South
2020-07-07T12:00:00Z,1594123200,2020,12,0,189.5,189.5,-58.517,15.948,978.4,-1.46,-999.0,yes,yes,no,300234066434250,BD2GI,AOML,SA_AGULHAS,South
2020-07-07T13:00:02Z,1594126803,2020,13,0,189.5417,189.5417,-58.519,15.955,977.1,-1.46,-999.0,yes,yes,no,300234066434250,BD2GI,AOML,SA_AGULHAS,South
2020-07-07T13:59:57Z,1594130397,2020,14,0,189.5833,189.5833,-58.518,15.959,976.6,-1.47,-999.0,yes,yes,no,300234066434250,BD2GI,AOML,SA_AGULHAS,South
2020-07-07T15:00:00Z,1594134000,2020,15,0,189.625,189.625,-58.516,15.962,976.3,-1.48,-999.0,yes,yes,no,300234066434250,BD2GI,AOML,SA_AGULHAS,South
2020-07-07T16:00:02Z,1594137603,2020,16,0,189.6667,189.6667,-58.515,15.964,976.5,-1.47,-999.0,yes,yes,no,300234066434250,BD2GI,AOML,SA_AGULHAS,South
2020-07-07T16:59:57Z,1594141197,2020,17,0,189.7083,189.7083,-58.514,15.964,976.6,-1.47,-999.0,yes,yes,no,300234066434250,BD2GI,AOML,SA_AGULHAS,South
2020-07-07T18:00:00Z,1594144800,2020,18,0,189.75,189.75,-58.513,15.964,976.7,-1.48,-999.0,yes,yes,no,300234066434250,BD2GI,AOML,SA_AGULHAS,South
2020-07-07T19:00:02Z,1594148403,2020,19,0,189.7917,189.7917,-58.514,15.962,976.4,-1.48,-999.0,yes,yes,no,300234066434250,BD2GI,AOML,SA_AGULHAS,South
2020-07-07T19:59:57Z,1594151997,2020,20,0,189.8333,189.8333,-58.516,15.961,976.9,-1.47,-999.0,yes,yes,no,300234066434250,BD2GI,AOML,SA_AGULHAS,South
2020-07-07T21:00:00Z,1594155600,2020,21,0,189.875,189.875,-58.518,15.96,977.1,-1.48,-999.0,yes,yes,no,300234066434250,BD2GI,AOML,SA_AGULHAS,South
2020-07-07T22:00:02Z,1594159203,2020,22,0,189.9167,189.9167,-58.523,15.961,977.4,-1.47,-999.0,yes,yes,no,300234066434250,BD2GI,AOML,SA_AGULHAS,South
2020-07-07T22:59:57Z,1594162797,2020,23,0,189.9583,189.9583,-58.527,15.967,977.9,-1.47,-999.0,yes,yes,no,300234066434250,BD2GI,AOML,SA_AGULHAS,South
2020-07-08T00:00:00Z,1594166400,2020,0,0,190.0,190.0,-58.531,15.973,977.5,-1.47,-999.0,yes,yes,no,300234066434250,BD2GI,AOML,SA_AGULHAS,South
2020-07-08T01:00:02Z,1594170003,2020,1,0,190.0417,190.0417,-58.534,15.979,976.9,-1.48,-999.0,yes,yes,no,300234066434250,BD2GI,AOML,SA_AGULHAS,South
2020-07-08T01:59:57Z,1594173597,2020,2,0,190.0833,190.0833,-58.537,15.985,976.3,-1.47,-999.0,yes,yes,no,300234066434250,BD2GI,AOML,SA_AGULHAS,South
2020-07-08T03:00:00Z,1594177200,2020,3,0,190.125,190.125,-58.54,15.989,975.5,-1.48,-999.0,yes,yes,no,300234066434250,BD2GI,AOML,SA_AGULHAS,South
2020-07-08T04:00:02Z,1594180803,2020,4,0,190.1667,190.1667,-58.542,15.995,974.6,-1.47,-999.0,yes,yes,no,300234066434250,BD2GI,AOML,SA_AGULHAS,South
2020-07-08T04:59:57Z,1594184397,2020,5,0,190.2083,190.2083,-58.545,15.996,973.3,-1.46,-999.0,yes,yes,no,300234066434250,BD2GI,AOML,SA_AGULHAS,South
2020-07-08T06:00:00Z,1594188000,2020,6,0,190.25,190.25,-58.55,15.995,972.7,-1.48,-999.0,yes,yes,no,300234066434250,BD2GI,AOML,SA_AGULHAS,South
2020-07-08T07:00:02Z,1594191603,2020,7,0,190.2917,190.2917,-58.553,15.995,971.8,-1.47,-999.0,yes,yes,no,300234066434250,BD2GI,AOML,SA_AGULHAS,South
2020-07-08T07:59:57Z,1594195197,2020,8,0,190.3333,190.3333,-58.556,15.995,971.4,-1.47,-999.0,yes,yes,no,300234066434250,BD2GI,AOML,SA_AGULHAS,South
2020-07-08T09:00:00Z,1594198800,2020,9,0,190.375,190.375,-58.56,15.998,971.3,-1.46,-999.0,yes,yes,no,300234066434250,BD2GI,AOML,SA_AGULHAS,South
2020-07-08T10:00:02Z,1594202403,2020,10,0,190.4167,190.4167,-58.562,16.003,970.6,-1.46,-999.0,yes,yes,no,300234066434250,BD2GI,AOML,SA_AGULHAS,South
2020-07-08T10:59:57Z,1594205997,2020,11,0,190.4583,190.4583,-58.565,16.005,969.8,-1.46,-999.0,yes,yes,no,300234066434250,BD2GI,AOML,SA_AGULHAS,South
2020-07-08T12:00:00Z,1594209600,2020,12,0,190.5,190.5,-58.567,16.006,968.8,-1.45,-999.0,yes,yes,no,300234066434250,BD2GI,AOML,SA_AGULHAS,South
2020-07-08T13:00:02Z,1594213203,2020,13,0,190.5417,190.5417,-58.57,16.009,968.1,-1.46,-999.0,yes,yes,no,300234066434250,BD2GI,AOML,SA_AGULHAS,South
2020-07-08T13:59:57Z,1594216797,2020,14,0,190.5833,190.5833,-58.572,16.013,967.3,-1.46,-999.0,yes,yes,no,300234066434250,BD2GI,AOML,SA_AGULHAS,South
2020-07-08T15:00:00Z,1594220400,2020,15,0,190.625,190.625,-58.575,16.016,967.9,-1.46,-999.0,yes,yes,no,300234066434250,BD2GI,AOML,SA_AGULHAS,South
2020-07-08T16:00:02Z,1594224003,2020,16,0,190.6667,190.6667,-58.576,16.021,968.2,-1.45,-999.0,yes,yes,no,300234066434250,BD2GI,AOML,SA_AGULHAS,South
2020-07-08T16:59:57Z,1594227597,2020,17,0,190.7083,190.7083,-58.577,16.027,968.6,-1.45,-999.0,yes,yes,no,300234066434250,BD2GI,AOML,SA_AGULHAS,South
2020-07-08T18:00:00Z,1594231200,2020,18,0,190.75,190.75,-58.577,16.032,969.2,-1.46,-999.0,yes,yes,no,300234066434250,BD2GI,AOML,SA_AGULHAS,South
2020-07-08T19:00:02Z,1594234803,2020,19,0,190.7917,190.7917,-58.576,16.035,969.7,-1.46,-999.0,yes,yes,no,300234066434250,BD2GI,AOML,SA_AGULHAS,South
2020-07-08T19:59:57Z,1594238397,2020,20,0,190.8333,190.8333,-58.577,16.037,970.0,-1.46,-999.0,yes,yes,no,300234066434250,BD2GI,AOML,SA_AGULHAS,South
2020-07-08T21:00:00Z,1594242000,2020,21,0,190.875,190.875,-58.577,16.038,970.0,-1.47,-999.0,yes,yes,no,300234066434250,BD2GI,AOML,SA_AGULHAS,South
2020-07-08T22:00:02Z,1594245603,2020,22,0,190.9167,190.9167,-58.578,16.039,969.6,-1.46,-999.0,yes,yes,no,300234066434250,BD2GI,AOML,SA_AGULHAS,South
2020-07-08T22:59:57Z,1594249197,2020,23,0,190.9583,190.9583,-58.58,16.04,969.2,-1.46,-999.0,yes,yes,no,300234066434250,BD2GI,AOML,SA_AGULHAS,South
2020-07-09T00:00:00Z,1594252800,2020,0,0,191.0,191.0,-58.581,16.04,969.0,-1.47,-999.0,yes,yes,no,300234066434250,BD2GI,AOML,SA_AGULHAS,South
2020-07-09T01:00:02Z,1594256403,2020,1,0,191.0417,191.0417,-58.583,16.04,968.7,-1.48,-999.0,yes,yes,no,300234066434250,BD2GI,AOML,SA_AGULHAS,South
2020-07-09T01:59:57Z,1594259997,2020,2,0,191.0833,191.0833,-58.586,16.04,968.4,-1.47,-999.0,yes,yes,no,300234066434250,BD2GI,AOML,SA_AGULHAS,South
2020-07-09T03:00:00Z,1594263600,2020,3,0,191.125,191.125,-58.589,16.04,968.0,-1.49,-999.0,yes,yes,no,300234066434250,BD2GI,AOML,SA_AGULHAS,South
2020-07-09T04:00:02Z,1594267203,2020,4,0,191.1667,191.1667,-58.591,16.041,968.0,-1.49,-999.0,yes,yes,no,300234066434250,BD2GI,AOML,SA_AGULHAS,South
2020-07-09T04:59:57Z,1594270797,2020,5,0,191.2083,191.2083,-58.594,16.043,967.8,-1.48,-999.0,yes,yes,no,300234066434250,BD2GI,AOML,SA_AGULHAS,South
2020-07-09T06:00:00Z,1594274400,2020,6,0,191.25,191.25,-58.596,16.046,967.6,-1.48,-999.0,yes,yes,no,300234066434250,BD2GI,AOML,SA_AGULHAS,South
2020-07-09T07:00:02Z,1594278003,2020,7,0,191.2917,191.2917,-58.599,16.049,967.4,-1.48,-999.0,yes,yes,no,300234066434250,BD2GI,AOML,SA_AGULHAS,South
2020-07-09T07:59:57Z,1594281597,2020,8,0,191.3333,191.3333,-58.601,16.054,967.3,-1.47,-999.0,yes,yes,no,300234066434250,BD2GI,AOML,SA_AGULHAS,South
2020-07-09T09:00:00Z,1594285200,2020,9,0,191.375,191.375,-58.602,16.06,967.1,-1.47,-999.0,yes,yes,no,300234066434250,BD2GI,AOML,SA_AGULHAS,South
2020-07-09T10:00:02Z,1594288803,2020,10,0,191.4167,191.4167,-58.602,16.064,966.6,-1.47,-999.0,yes,yes,no,300234066434250,BD2GI,AOML,SA_AGULHAS,South
2020-07-09T10:59:57Z,1594292397,2020,11,0,191.4583,191.4583,-58.601,16.069,966.5,-1.48,-999.0,yes,yes,no,300234066434250,BD2GI,AOML,SA_AGULHAS,South
2020-07-09T12:00:00Z,1594296000,2020,12,0,191.5,191.5,-58.599,16.072,965.9,-1.47,-999.0,yes,yes,no,300234066434250,BD2GI,AOML,SA_AGULHAS,South
2020-07-09T13:00:02Z,1594299603,2020,13,0,191.5417,191.5417,-58.598,16.071,965.9,-1.47,-999.0,yes,yes,no,300234066434250,BD2GI,AOML,SA_AGULHAS,South
2020-07-09T13:59:57Z,1594303197,2020,14,0,191.5833,191.5833,-58.596,16.068,965.8,-1.48,-999.0,yes,yes,no,300234066434250,BD2GI,AOML,SA_AGULHAS,South
2020-07-09T15:00:00Z,1594306800,2020,15,0,191.625,191.625,-58.596,16.065,965.6,-1.48,-999.0,yes,yes,no,300234066434250,BD2GI,AOML,SA_AGULHAS,South
2020-07-09T16:00:02Z,1594310403,2020,16,0,191.6667,191.6667,-58.598,16.061,965.7,-1.48,-999.0,yes,yes,no,300234066434250,BD2GI,AOML,SA_AGULHAS,South
2020-07-09T16:59:57Z,1594313997,2020,17,0,191.7083,191.7083,-58.6,16.059,965.7,-1.48,-999.0,yes,yes,no,300234066434250,BD2GI,AOML,SA_AGULHAS,South
2020-07-09T18:00:00Z,1594317600,2020,18,0,191.75,191.75,-58.603,16.057,966.0,-1.48,-999.0,yes,yes,no,300234066434250,BD2GI,AOML,SA_AGULHAS,South
2020-07-09T19:00:02Z,1594321203,2020,19,0,191.7917,191.7917,-58.605,16.058,966.4,-1.49,-999.0,yes,yes,no,300234066434250,BD2GI,AOML,SA_AGULHAS,South
2020-07-09T19:59:57Z,1594324797,2020,20,0,191.8333,191.8333,-58.608,16.062,966.5,-1.49,-999.0,yes,yes,no,300234066434250,BD2GI,AOML,SA_AGULHAS,South
2020-07-09T21:00:00Z,1594328400,2020,21,0,191.875,191.875,-58.61,16.068,966.5,-1.47,-999.0,yes,yes,no,300234066434250,BD2GI,AOML,SA_AGULHAS,South
2020-07-09T22:00:02Z,1594332003,2020,22,0,191.9167,191.9167,-58.612,16.077,966.3,-1.47,-999.0,yes,yes,no,300234066434250,BD2GI,AOML,SA_AGULHAS,South
2020-07-09T22:59:57Z,1594335597,2020,23,0,191.9583,191.9583,-58.611,16.086,966.5,-1.47,-999.0,yes,yes,no,300234066434250,BD2GI,AOML,SA_AGULHAS,South
2020-07-10T00:00:00Z,1594339200,2020,0,0,192.0,192.0,-58.609,16.096,966.4,-1.47,-999.0,yes,yes,no,300234066434250,BD2GI,AOML,SA_AGULHAS,South
2020-07-10T01:00:02Z,1594342803,2020,1,0,192.0417,192.0417,-58.606,16.101,966.4,-1.46,-999.0,yes,yes,no,300234066434250,BD2GI,AOML,SA_AGULHAS,South
2020-07-10T01:59:57Z,1594346397,2020,2,0,192.0833,192.0833,-58.603,16.102,966.8,-1.47,-999.0,yes,yes,no,300234066434250,BD2GI,AOML,SA_AGULHAS,South
2020-07-10T03:00:00Z,1594350000,2020,3,0,192.125,192.125,-58.601,16.1,967.0,-1.47,-999.0,yes,yes,no,300234066434250,BD2GI,AOML,SA_AGULHAS,South
2020-07-10T04:00:02Z,1594353603,2020,4,0,192.1667,192.1667,-58.601,16.098,967.1,-1.47,-999.0,yes,yes,no,300234066434250,BD2GI,AOML,SA_AGULHAS,South
2020-07-10T04:59:57Z,1594357197,2020,5,0,192.2083,192.2083,-58.601,16.095,967.4,-1.48,-999.0,yes,yes,no,300234066434250,BD2GI,AOML,SA_AGULHAS,South
2020-07-10T06:00:00Z,1594360800,2020,6,0,192.25,192.25,-58.603,16.091,967.5,-1.47,-999.0,yes,yes,no,300234066434250,BD2GI,AOML,SA_AGULHAS,South
2020-07-10T07:00:02Z,1594364403,2020,7,0,192.2917,192.2917,-58.607,16.088,967.6,-1.48,-999.0,yes,yes,no,300234066434250,BD2GI,AOML,SA_AGULHAS,South
2020-07-10T07:59:57Z,1594367997,2020,8,0,192.3333,192.3333,-58.614,16.089,967.9,-1.48,-999.0,yes,yes,no,300234066434250,BD2GI,AOML,SA_AGULHAS,South
2020-07-10T09:00:00Z,1594371600,2020,9,0,192.375,192.375,-58.62,16.092,968.1,-1.48,-999.0,yes,yes,no,300234066434250,BD2GI,AOML,SA_AGULHAS,South
2020-07-10T10:00:02Z,1594375203,2020,10,0,192.4167,192.4167,-58.626,16.098,968.2,-1.49,-999.0,yes,yes,no,300234066434250,BD2GI,AOML,SA_AGULHAS,South
2020-07-10T10:59:57Z,1594378797,2020,11,0,192.4583,192.4583,-58.631,16.108,967.9,-1.49,-999.0,yes,yes,no,300234066434250,BD2GI,AOML,SA_AGULHAS,South
2020-07-10T12:00:00Z,1594382400,2020,12,0,192.5,192.5,-58.633,16.118,967.8,-1.51,-999.0,yes,yes,no,300234066434250,BD2GI,AOML,SA_AGULHAS,South
2020-07-10T13:00:02Z,1594386003,2020,13,0,192.5417,192.5417,-58.633,16.127,967.3,-1.54,-999.0,yes,yes,no,300234066434250,BD2GI,AOML,SA_AGULHAS,South
2020-07-10T13:59:57Z,1594389597,2020,14,0,192.5833,192.5833,-58.631,16.134,967.0,-1.59,-999.0,yes,yes,no,300234066434250,BD2GI,AOML,SA_AGULHAS,South
2020-07-10T15:00:00Z,1594393200,2020,15,0,192.625,192.625,-58.63,16.137,967.4,-1.52,-999.0,yes,yes,no,300234066434250,BD2GI,AOML,SA_AGULHAS,South
2020-07-10T16:00:02Z,1594396803,2020,16,0,192.6667,192.6667,-58.628,16.139,967.7,-1.57,-999.0,yes,yes,no,300234066434250,BD2GI,AOML,SA_AGULHAS,South
2020-07-10T16:59:57Z,1594400397,2020,17,0,192.7083,192.7083,-58.625,16.134,967.8,-1.54,-999.0,yes,yes,no,300234066434250,BD2GI,AOML,SA_AGULHAS,South
2020-07-10T18:00:00Z,1594404000,2020,18,0,192.75,192.75,-58.625,16.127,968.2,-1.53,-999.0,yes,yes,no,300234066434250,BD2GI,AOML,SA_AGULHAS,South
2020-07-10T19:00:02Z,1594407603,2020,19,0,192.7917,192.7917,-58.627,16.123,968.8,-1.51,-999.0,yes,yes,no,300234066434250,BD2GI,AOML,SA_AGULHAS,South
2020-07-10T19:59:57Z,1594411197,2020,20,0,192.8333,192.8333,-58.632,16.119,969.1,-1.53,-999.0,yes,yes,no,300234066434250,BD2GI,AOML,SA_AGULHAS,South
2020-07-10T21:00:00Z,1594414800,2020,21,0,192.875,192.875,-58.637,16.116,969.3,-1.54,-999.0,yes,yes,no,300234066434250,BD2GI,AOML,SA_AGULHAS,South
2020-07-10T22:00:02Z,1594418403,2020,22,0,192.9167,192.9167,-58.644,16.117,969.8,-1.53,-999.0,yes,yes,no,300234066434250,BD2GI,AOML,SA_AGULHAS,South
2020-07-10T22:59:57Z,1594421997,2020,23,0,192.9583,192.9583,-58.65,16.124,970.3,-1.52,-999.0,yes,yes,no,300234066434250,BD2GI,AOML,SA_AGULHAS,South
2020-07-11T00:00:00Z,1594425600,2020,0,0,193.0,193.0,-58.655,16.135,970.5,-1.54,-999.0,yes,yes,no,300234066434250,BD2GI,AOML,SA_AGULHAS,South
2020-07-11T01:00:02Z,1594429203,2020,1,0,193.0417,193.0417,-58.657,16.147,971.1,-1.55,-999.0,yes,yes,no,300234066434250,BD2GI,AOML,SA_AGULHAS,South
2020-07-11T01:59:57Z,1594432797,2020,2,0,193.0833,193.0833,-58.658,16.16,971.9,-1.54,-999.0,yes,yes,no,300234066434250,BD2GI,AOML,SA_AGULHAS,South
2020-07-11T03:00:00Z,1594436400,2020,3,0,193.125,193.125,-58.655,16.172,972.7,-1.55,-999.0,yes,yes,no,300234066434250,BD2GI,AOML,SA_AGULHAS,South
2020-07-11T04:00:02Z,1594440003,2020,4,0,193.1667,193.1667,-58.652,16.181,973.4,-1.55,-999.0,yes,yes,no,300234066434250,BD2GI,AOML,SA_AGULHAS,South
2020-07-11T04:59:57Z,1594443597,2020,5,0,193.2083,193.2083,-58.649,16.185,974.6,-1.57,-999.0,yes,yes,no,300234066434250,BD2GI,AOML,SA_AGULHAS,South
2020-07-11T06:00:00Z,1594447200,2020,6,0,193.25,193.25,-58.645,16.184,975.7,-1.57,-999.0,yes,yes,no,300234066434250,BD2GI,AOML,SA_AGULHAS,South
2020-07-11T07:00:02Z,1594450803,2020,7,0,193.2917,193.2917,-58.643,16.182,977.0,-1.58,-999.0,yes,yes,no,300234066434250,BD2GI,AOML,SA_AGULHAS,South
2020-07-11T07:59:57Z,1594454397,2020,8,0,193.3333,193.3333,-58.643,16.182,978.1,-1.6,-999.0,yes,yes,no,300234066434250,BD2GI,AOML,SA_AGULHAS,South
2020-07-11T09:00:00Z,1594458000,2020,9,0,193.375,193.375,-58.644,16.18,979.3,-1.61,-999.0,yes,yes,no,300234066434250,BD2GI,AOML,SA_AGULHAS,South
2020-07-11T10:00:02Z,1594461603,2020,10,0,193.4167,193.4167,-58.647,16.178,980.4,-1.59,-999.0,yes,yes,no,300234066434250,BD2GI,AOML,SA_AGULHAS,South
2020-07-11T10:59:57Z,1594465197,2020,11,0,193.4583,193.4583,-58.651,16.179,981.3,-1.59,-999.0,yes,yes,no,300234066434250,BD2GI,AOML,SA_AGULHAS,South
2020-07-11T12:00:00Z,1594468800,2020,12,0,193.5,193.5,-58.656,16.185,982.4,-1.59,-999.0,yes,yes,no,300234066434250,BD2GI,AOML,SA_AGULHAS,South
2020-07-11T13:00:02Z,1594472403,2020,13,0,193.5417,193.5417,-58.66,16.195,983.3,-1.59,-999.0,yes,yes,no,300234066434250,BD2GI,AOML,SA_AGULHAS,South
2020-07-11T13:59:57Z,1594475997,2020,14,0,193.5833,193.5833,-58.662,16.207,984.3,-1.6,-999.0,yes,yes,no,300234066434250,BD2GI,AOML,SA_AGULHAS,South
2020-07-11T15:00:00Z,1594479600,2020,15,0,193.625,193.625,-58.664,16.22,985.6,-1.6,-999.0,yes,yes,no,300234066434250,BD2GI,AOML,SA_AGULHAS,South
2020-07-11T16:00:02Z,1594483203,2020,16,0,193.6667,193.6667,-58.663,16.233,986.9,-1.62,-999.0,yes,yes,no,300234066434250,BD2GI,AOML,SA_AGULHAS,South
2020-07-11T16:59:57Z,1594486797,2020,17,0,193.7083,193.7083,-58.659,16.243,988.0,-1.62,-999.0,yes,yes,no,300234066434250,BD2GI,AOML,SA_AGULHAS,South
2020-07-11T18:00:00Z,1594490400,2020,18,0,193.75,193.75,-58.655,16.247,989.2,-1.65,-999.0,yes,yes,no,300234066434250,BD2GI,AOML,SA_AGULHAS,South
2020-07-11T19:00:02Z,1594494003,2020,19,0,193.7917,193.7917,-58.653,16.248,990.1,-1.64,-999.0,yes,yes,no,300234066434250,BD2GI,AOML,SA_AGULHAS,South
2020-07-11T19:59:57Z,1594497597,2020,20,0,193.8333,193.8333,-58.651,16.247,991.1,-1.65,-999.0,yes,yes,no,300234066434250,BD2GI,AOML,SA_AGULHAS,South
2020-07-11T21:00:00Z,1594501200,2020,21,0,193.875,193.875,-58.65,16.242,991.9,-1.66,-999.0,yes,yes,no,300234066434250,BD2GI,AOML,SA_AGULHAS,South
2020-07-11T22:00:02Z,1594504803,2020,22,0,193.9167,193.9167,-58.652,16.239,992.6,-1.66,-999.0,yes,yes,no,300234066434250,BD2GI,AOML,SA_AGULHAS,South
2020-07-11T22:59:57Z,1594508397,2020,23,0,193.9583,193.9583,-58.655,16.237,993.0,-1.68,-999.0,yes,yes,no,300234066434250,BD2GI,AOML,SA_AGULHAS,South
2020-07-12T00:00:00Z,1594512000,2020,0,0,194.0,194.0,-58.658,16.235,993.3,-1.69,-999.0,yes,yes,no,300234066434250,BD2GI,AOML,SA_AGULHAS,South
2020-07-12T01:00:02Z,1594515603,2020,1,0,194.0417,194.0417,-58.663,16.233,993.4,-1.69,-999.0,yes,yes,no,300234066434250,BD2GI,AOML,SA_AGULHAS,South
2020-07-12T01:59:57Z,1594519197,2020,2,0,194.0833,194.0833,-58.67,16.235,993.1,-1.71,-999.0,yes,yes,no,300234066434250,BD2GI,AOML,SA_AGULHAS,South
2020-07-12T03:00:00Z,1594522800,2020,3,0,194.125,194.125,-58.674,16.242,992.8,-1.67,-999.0,yes,yes,no,300234066434250,BD2GI,AOML,SA_AGULHAS,South
2020-07-12T04:00:02Z,1594526403,2020,4,0,194.1667,194.1667,-58.678,16.251,992.5,-1.7,-999.0,yes,yes,no,300234066434250,BD2GI,AOML,SA_AGULHAS,South
2020-07-12T04:59:57Z,1594529997,2020,5,0,194.2083,194.2083,-58.68,16.26,992.2,-1.68,-999.0,yes,yes,no,300234066434250,BD2GI,AOML,SA_AGULHAS,South
2020-07-12T06:00:00Z,1594533600,2020,6,0,194.25,194.25,-58.68,16.269,991.9,-1.69,-999.0,yes,yes,no,300234066434250,BD2GI,AOML,SA_AGULHAS,South
2020-07-12T07:00:02Z,1594537203,2020,7,0,194.2917,194.2917,-58.68,16.275,991.4,-1.67,-999.0,yes,yes,no,300234066434250,BD2GI,AOML,SA_AGULHAS,South
2020-07-12T07:59:57Z,1594540797,2020,8,0,194.3333,194.3333,-58.679,16.279,990.6,-1.67,-999.0,yes,yes,no,300234066434250,BD2GI,AOML,SA_AGULHAS,South
2020-07-12T09:00:00Z,1594544400,2020,9,0,194.375,194.375,-58.678,16.278,990.0,-1.67,-999.0,yes,yes,no,300234066434250,BD2GI,AOML,SA_AGULHAS,South
2020-07-12T10:00:02Z,1594548003,2020,10,0,194.4167,194.4167,-58.68,16.274,989.2,-1.66,-999.0,yes,yes,no,300234066434250,BD2GI,AOML,SA_AGULHAS,South
2020-07-12T10:59:57Z,1594551597,2020,11,0,194.4583,194.4583,-58.683,16.27,988.6,-1.66,-999.0,yes,yes,no,300234066434250,BD2GI,AOML,SA_AGULHAS,South
2020-07-12T12:00:00Z,1594555200,2020,12,0,194.5,194.5,-58.686,16.265,988.4,-1.66,-999.0,yes,yes,no,300234066434250,BD2GI,AOML,SA_AGULHAS,South
2020-07-12T13:00:02Z,1594558803,2020,13,0,194.5417,194.5417,-58.692,16.262,987.4,-1.67,-999.0,yes,yes,no,300234066434250,BD2GI,AOML,SA_AGULHAS,South
2020-07-12T13:59:57Z,1594562397,2020,14,0,194.5833,194.5833,-58.698,16.262,987.0,-1.69,-999.0,yes,yes,no,300234066434250,BD2GI,AOML,SA_AGULHAS,South
2020-07-12T15:00:00Z,1594566000,2020,15,0,194.625,194.625,-58.704,16.265,986.4,-1.75,-999.0,yes,yes,no,300234066434250,BD2GI,AOML,SA_AGULHAS,South
2020-07-12T16:00:02Z,1594569603,2020,16,0,194.6667,194.6667,-58.709,16.272,984.6,-1.88,-999.0,yes,yes,no,300234066434250,BD2GI,AOML,SA_AGULHAS,South
2020-07-12T16:59:57Z,1594573197,2020,17,0,194.7083,194.7083,-58.712,16.281,982.9,-1.89,-999.0,yes,yes,no,300234066434250,BD2GI,AOML,SA_AGULHAS,South
2020-07-12T18:00:00Z,1594576800,2020,18,0,194.75,194.75,-58.712,16.292,985.9,-1.86,-999.0,yes,yes,no,300234066434250,BD2GI,AOML,SA_AGULHAS,South
2020-07-12T19:00:02Z,1594580403,2020,19,0,194.7917,194.7917,-58.711,16.302,992.1,-1.85,-999.0,yes,yes,no,300234066434250,BD2GI,AOML,SA_AGULHAS,South
2020-07-12T19:59:57Z,1594583997,2020,20,0,194.8333,194.8333,-58.707,16.308,982.9,-1.9,-999.0,yes,yes,no,300234066434250,BD2GI,AOML,SA_AGULHAS,South
2020-07-12T21:00:00Z,1594587600,2020,21,0,194.875,194.875,-58.704,16.312,980.9,-1.84,-999.0,yes,yes,no,300234066434250,BD2GI,AOML,SA_AGULHAS,South
2020-07-12T22:00:02Z,1594591203,2020,22,0,194.9167,194.9167,-58.7,16.312,987.4,-1.87,-999.0,yes,yes,no,300234066434250,BD2GI,AOML,SA_AGULHAS,South
2020-07-12T22:59:57Z,1594594797,2020,23,0,194.9583,194.9583,-58.697,16.306,999.2,-1.85,-999.0,yes,yes,no,300234066434250,BD2GI,AOML,SA_AGULHAS,South
2020-07-13T00:00:00Z,1594598400,2020,0,0,195.0,195.0,-58.696,16.298,995.4,-1.83,-999.0,yes,yes,no,300234066434250,BD2GI,AOML,SA_AGULHAS,South
2020-07-13T01:00:02Z,1594602003,2020,1,0,195.0417,195.0417,-58.697,16.289,996.4,-1.79,-999.0,yes,yes,no,300234066434250,BD2GI,AOML,SA_AGULHAS,South
2020-07-13T01:59:57Z,1594605597,2020,2,0,195.0833,195.0833,-58.701,16.28,995.6,-1.78,-999.0,yes,yes,no,300234066434250,BD2GI,AOML,SA_AGULHAS,South
2020-07-13T03:00:00Z,1594609200,2020,3,0,195.125,195.125,-58.706,16.277,993.1,-1.76,-999.0,yes,yes,no,300234066434250,BD2GI,AOML,SA_AGULHAS,South
2020-07-13T04:00:02Z,1594612803,2020,4,0,195.1667,195.1667,-58.711,16.277,989.8,-1.76,-999.0,yes,yes,no,300234066434250,BD2GI,AOML,SA_AGULHAS,South
2020-07-13T04:59:57Z,1594616397,2020,5,0,195.2083,195.2083,-58.715,16.28,998.3,-1.77,-999.0,yes,yes,no,300234066434250,BD2GI,AOML,SA_AGULHAS,South
2020-07-13T06:00:00Z,1594620000,2020,6,0,195.25,195.25,-58.716,16.287,995.2,-1.83,-999.0,yes,yes,no,300234066434250,BD2GI,AOML,SA_AGULHAS,South
2020-07-13T07:00:02Z,1594623603,2020,7,0,195.2917,195.2917,-58.717,16.293,997.1,-1.84,-999.0,yes,yes,no,300234066434250,BD2GI,AOML,SA_AGULHAS,South
2020-07-13T07:59:57Z,1594627197,2020,8,0,195.3333,195.3333,-58.717,16.299,996.1,-1.79,-999.0,yes,yes,no,300234066434250,BD2GI,AOML,SA_AGULHAS,South
2020-07-13T09:00:00Z,1594630800,2020,9,0,195.375,195.375,-58.714,16.305,986.2,-1.86,-999.0,yes,yes,no,300234066434250,BD2GI,AOML,SA_AGULHAS,South
2020-07-13T10:00:02Z,1594634403,2020,10,0,195.4167,195.4167,-58.711,16.306,986.8,-1.8,-999.0,yes,yes,no,300234066434250,BD2GI,AOML,SA_AGULHAS,South
2020-07-13T10:59:57Z,1594637997,2020,11,0,195.4583,195.4583,-58.708,16.307,989.5,-1.79,-999.0,yes,yes,no,300234066434250,BD2GI,AOML,SA_AGULHAS,South